KB2KRJ Weather Reports


time (UTC)temp
C
wind
direction
speed
KPH
gust
KPH
rain 1hr
cm
rain 24hr
cm
rain mn
cm
humidity
%
barometer
mb
20260510103030 11 151 0.0 0.0 0.00 0.03 0.00 10 1011.8
20260510101525 11 151 0.0 0.0 0.00 0.03 0.00 10 1011.5
20260510100021 11 151 0.0 0.0 0.00 0.03 0.00 10 1011.1
20260510094532 11 151 0.0 0.0 0.00 0.03 0.00 10 1010.8
20260510093012 11 151 0.0 0.0 0.00 0.03 0.00 10 1010.9
20260510091508 11 151 0.0 0.0 0.00 0.03 0.00 10 1010.8
20260510090005 11 155 0.0 0.0 0.00 0.03 0.00 10 1010.6
20260510084604 11 155 0.0 0.0 0.00 0.03 0.00 10 1010.4
20260510083055 11 155 0.0 0.0 0.00 0.03 0.00 11 1010.4
20260510081556 11 156 0.0 0.0 0.00 0.03 0.00 11 1010.6
20260510080048 11 156 0.0 1.6 0.00 0.03 0.00 11 1010.4
20260510074542 11 56 0.0 1.6 0.00 0.03 0.00 11 1010.5
20260510073037 11 56 0.0 0.0 0.00 0.03 0.00 11 1010.6
20260510071533 11 56 0.0 0.0 0.00 0.03 0.00 11 1011.3
20260510070034 11 56 0.0 0.0 0.00 0.03 0.00 11 1011.1
20260510064527 11 56 0.0 0.0 0.00 0.03 0.00 11 1011.5
20260510063025 11 56 0.0 1.6 0.00 0.03 0.00 11 1011.4
20260510061528 11 56 0.0 0.0 0.00 0.03 0.00 11 1011.1
20260510060023 11 56 0.0 3.2 0.00 0.03 0.00 11 1011.0
20260510054522 11 138 0.0 0.0 0.00 0.03 0.00 11 1010.6
20260510053021 11 138 0.0 0.0 0.00 0.03 0.00 12 1010.8
20260510051530 11 138 0.0 0.0 0.00 0.03 0.00 12 1010.8
20260510050020 11 139 0.0 0.0 0.00 0.03 0.00 13 1011.0
20260510044518 11 139 0.0 1.6 0.00 0.03 0.00 13 1010.8
20260510043022 11 138 0.0 0.0 0.00 0.03 0.00 12 1010.8
20260510041514 11 137 0.0 4.8 0.00 0.03 0.00 12 1010.6
20260510040012 11 148 1.6 8.0 0.00 0.03 0.00 12 1010.6
20260510034508 12 171 0.0 16.1 0.00 0.03 0.03 11 1010.6
20260510033003 12 101 0.0 9.7 0.00 0.03 0.03 11 1010.6
20260510031603 12 127 0.0 8.0 0.00 0.03 0.03 11 1010.8
20260510030054 12 105 0.0 1.6 0.00 0.03 0.03 11 1010.5
20260510024607 12 165 0.0 6.4 0.00 0.03 0.03 11 1010.8
20260510023046 12 131 0.0 4.8 0.00 0.03 0.03 11 1010.7
20260510021541 12 122 0.0 3.2 0.00 0.03 0.03 11 1010.5
20260510020037 12 137 0.0 8.0 0.03 0.03 0.03 11 1010.7
20260510014532 12 137 0.0 0.0 0.03 0.03 0.03 12 1010.9
20260510013028 12 137 0.0 0.0 0.03 0.03 0.03 12 1010.8
20260510011523 12 137 0.0 0.0 0.03 0.03 0.03 12 1010.6
20260510010019 12 137 0.0 4.8 0.00 0.00 0.00 12 1010.3
20260510004516 12 136 0.0 3.2 0.00 0.00 0.00 13 1010.3
20260510003011 12 135 0.0 4.8 0.00 0.00 0.00 13 1010.2
20260510001508 12 135 0.0 4.8 0.00 0.00 0.00 15 1010.0
20260510000006 12 147 0.0 3.2 0.00 0.00 0.00 15 1009.7
20260509234558 12 144 0.0 4.8 0.00 0.00 0.00 15 1009.6
20260509233054 12 157 0.0 1.6 0.00 0.00 0.00 15 1009.3
20260509231600 13 157 0.0 8.0 0.00 0.00 0.00 14 1009.3
20260509230044 13 140 0.0 6.4 0.00 0.00 0.00 13 1009.3
20260509224539 13 130 0.0 8.0 0.00 0.00 0.00 12 1009.3
20260509223043 13 123 0.0 3.2 0.00 0.00 0.00 10 1009.4
20260509221533 13 115 0.0 9.7 0.00 0.00 0.00 9 1009.6
20260509220026 13 151 0.0 3.2 0.00 0.00 0.00 8 1009.6
20260509214522 12 133 0.0 3.2 0.00 0.00 0.00 8 1009.7
20260509213018 12 132 0.0 4.8 0.00 0.00 0.00 8 1009.7
20260509211516 12 69 0.0 1.6 0.00 0.00 0.00 8 1009.6
20260509210011 12 69 0.0 6.4 0.00 0.00 0.00 8 1009.8
20260509204505 12 84 0.0 1.6 0.00 0.00 0.00 8 1010.0
20260509203005 12 84 0.0 1.6 0.00 0.00 0.00 8 1010.1
20260509201558 12 144 0.0 1.6 0.00 0.00 0.00 8 1010.2
20260509200055 12 145 0.0 4.8 0.00 0.00 0.00 8 1010.3
20260509194547 12 103 0.0 4.8 0.00 0.00 0.00 9 1010.5
20260509193044 11 153 0.0 6.4 0.00 0.00 0.00 10 1010.7
20260509191539 11 109 0.0 6.4 0.00 0.00 0.00 10 1011.0
20260509190039 11 103 1.6 11.3 0.00 0.00 0.00 10 1011.1
20260509184536 11 142 1.6 16.1 0.00 0.00 0.00 11 1011.2
20260509183026 11 148 1.6 9.7 0.00 0.00 0.00 11 1011.4
20260509181522 11 86 1.6 11.3 0.00 0.00 0.00 12 1011.3
20260509180025 11 130 0.0 8.0 0.00 0.00 0.00 12 1011.3
20260509174521 11 165 0.0 8.0 0.00 0.00 0.00 12 1011.3
20260509173049 10 158 0.0 4.8 0.00 0.00 0.00 12 1011.4
20260509171524 10 146 0.0 8.0 0.00 0.00 0.00 12 1011.8
20260509170017 10 137 0.0 6.4 0.00 0.00 0.00 12 1012.1
20260509164515 10 138 1.6 8.0 0.00 0.00 0.00 13 1012.2
20260509163016 10 178 0.0 3.2 0.00 0.00 0.00 13 1012.3
20260509161508 10 182 0.0 1.6 0.00 0.00 0.00 14 1012.5
20260509160004 9 183 0.0 0.0 0.00 0.00 0.00 16 1012.7
20260509154600 8 183 0.0 0.0 0.00 0.00 0.00 17 1013.0
20260509153100 8 183 0.0 3.2 0.00 0.00 0.00 17 1013.1
20260509151621 8 183 0.0 3.2 0.00 0.00 0.00 17 1013.1
20260509150055 8 176 0.0 6.4 0.00 0.00 0.00 19 1013.3
20260509144552 7 116 0.0 0.0 0.00 0.00 0.00 20 1013.3
20260509143058 7 116 0.0 3.2 0.00 0.00 0.00 21 1013.5
20260509141552 7 117 0.0 1.6 0.00 0.00 0.00 21 1013.5
20260509140047 7 117 0.0 1.6 0.00 0.00 0.00 22 1013.4
20260509134547 7 117 0.0 0.0 0.00 0.00 0.00 23 1013.4
20260509133045 6 117 0.0 0.0 0.00 0.00 0.00 23 1013.3
20260509131556 6 117 0.0 0.0 0.00 0.00 0.00 24 1013.3
20260509130105 6 117 0.0 0.0 0.00 0.00 0.00 24 1013.5
20260509124543 6 117 0.0 0.0 0.00 0.00 0.00 24 1013.6
20260509123113 6 117 0.0 0.0 0.00 0.00 0.00 25 1013.7
20260509121540 6 117 0.0 0.0 0.00 0.00 0.00 26 1013.8
20260509120047 6 117 0.0 0.0 0.00 0.00 0.00 26 1013.8
20260509114546 6 117 0.0 0.0 0.00 0.00 0.00 26 1013.8
20260509113036 6 117 0.0 0.0 0.00 0.00 0.00 27 1013.8
20260509111535 6 117 0.0 0.0 0.00 0.00 0.00 27 1013.8
20260509110035 6 117 0.0 0.0 0.00 0.00 0.00 28 1013.9
20260509104533 6 117 0.0 1.6 0.00 0.00 0.00 28 1014.1